Weather History for Pecs, Hungary

Change the Weather History Date:

Sunday, November 3, 2013

  Actual Average Record
Temperature  
Mean Temperature 58 °F -  
Max Temperature 70 °F 47 °F - ()
Min Temperature 46 °F 35 °F - ()
Degree Days  
Heating Degree Days 7    
Growing Degree Days 8 (Base 50)    
Moisture  
Dew Point 52 °F    
Average Humidity 77    
Maximum Humidity 93    
Minimum Humidity 59    
Precipitation  
Precipitation 0.08 in 0.07 in - ()
Sea Level Pressure  
Sea Level Pressure 29.83 in    
Wind  
Wind Speed 9 mph ()    
Max Wind Speed 29 mph    
Max Gust Speed 43 mph    
Visibility 5.8 miles    
Events Rain    
T = Trace of Precipitation, MM = Missing Value Source: Averaged Metar Reports

Daily Weather History Graph

Daily Weather History Graph

Search for Another Location

Airport:

Trip Planner

Search our weather history database for the weather conditions in past years. The results will help you decide how hot, cold, wet, or windy it might be!

Date:

Astronomy

Nov. 03, 2013 Rise Set
Actual Time 6:30 AM CET 4:30 PM CET
Civil Twilight 5:58 AM CET 5:01 PM CET
Nautical Twilight 5:23 AM CET 5:36 PM CET
Astronomical Twilight 4:48 AM CET 6:11 PM CET
Moon 6:14 AM CET (11/3) 4:30 PM CET (11/3)
Length of Visible Light 11h 02m
Length of Day
9h 59m
Waning Crescent, 0% of the Moon is Illuminated
Nov 3
Waning Crescent
Nov 3
New
Nov 10
First Quarter
Nov 17
Full
Nov 25
Last Quarter

Hourly Weather History & Observations

Time (CET) Temp. Windchill Dew Point Humidity Pressure Visibility Wind Dir Wind Speed Gust Speed Precip Events Conditions
12:45 AM 55.4 °F - 51.8 °F 88% 29.95 in - SSW 5.8 mph - N/A   Clear
1:00 AM 55 °F - 52 °F 88% 29.94 in 12 mi SSW 6.7 mph - -   Partly Cloudy
1:45 AM 57.2 °F - 51.8 °F 82% 29.95 in - SW 8.1 mph - N/A   Clear
2:45 AM 57.2 °F - 53.6 °F 88% 29.92 in - SSW 4.6 mph - N/A   Clear
3:45 AM 57.2 °F - 53.6 °F 88% 29.89 in - SSW 6.9 mph - N/A   Clear
4:45 AM 57.2 °F - 53.6 °F 88% 29.89 in - SW 6.9 mph - N/A   Clear
5:15 AM 59.0 °F - 53.6 °F 82% 29.89 in - SW 6.9 mph - N/A   Clear
5:45 AM 59.0 °F - 53.6 °F 82% 29.89 in - SSW 6.9 mph - N/A   Clear
6:00 AM - - - N/A% - 6.2 mi SSW 8.1 mph - N/A   Clear
6:15 AM 59.0 °F - 53.6 °F 82% 29.89 in - SW 4.6 mph - N/A   Clear
6:45 AM 57.2 °F - 51.8 °F 82% 29.86 in - South 5.8 mph - N/A   Clear
7:00 AM 58 °F - 52 °F 76% 29.87 in 31 mi South 4.5 mph - -   Partly Cloudy
7:15 AM 57.2 °F - 51.8 °F 82% 29.86 in - South 5.8 mph - N/A   Clear
7:45 AM 59.0 °F - 51.8 °F 77% 29.86 in - South 6.9 mph - N/A   Clear
8:15 AM 60.8 °F - 53.6 °F 77% 29.86 in - South 9.2 mph - N/A   Clear
8:45 AM 60.8 °F - 51.8 °F 72% 29.86 in - South 11.5 mph - N/A   Clear
9:00 AM - - - N/A% - 6.2 mi South 12.7 mph - N/A   Clear
9:15 AM 62.6 °F - 53.6 °F 72% 29.83 in - South 11.5 mph - N/A   Clear
9:45 AM 64.4 °F - 53.6 °F 68% 29.83 in - South 11.5 mph - N/A   Clear
10:15 AM 64.4 °F - 55.4 °F 73% 29.83 in - South 10.4 mph - N/A   Clear
10:45 AM 66.2 °F - 55.4 °F 68% 29.80 in - South 11.5 mph - N/A   Clear
11:15 AM 66.2 °F - 55.4 °F 68% 29.80 in - South 10.4 mph - N/A   Clear
11:45 AM 66.2 °F - 55.4 °F 68% 29.77 in 6.2 mi South 10.4 mph - N/A   Overcast
12:00 PM - - - N/A% - - South 12.7 mph - N/A   Dust Whirls
12:15 PM 66.2 °F - 55.4 °F 68% 29.77 in 6.2 mi South 6.9 mph - N/A   Mostly Cloudy
12:45 PM 66.2 °F - 55.4 °F 68% 29.74 in 6.2 mi South 8.1 mph - N/A   Mostly Cloudy
1:00 PM 67 °F - 56 °F 59% 29.74 in 31 mi South 6.7 mph - -   Partly Cloudy
1:15 PM 66.2 °F - 57.2 °F 73% 29.74 in 6.2 mi South 8.1 mph - N/A   Mostly Cloudy
1:45 PM 68.0 °F - 57.2 °F 68% 29.74 in 6.2 mi SSW 9.2 mph - N/A   Mostly Cloudy
2:15 PM 69.8 °F - 55.4 °F 60% 29.71 in 6.2 mi SSW 13.8 mph - N/A   Mostly Cloudy
2:45 PM 68.0 °F - 55.4 °F 64% 29.71 in 6.2 mi SSW 10.4 mph - N/A   Mostly Cloudy
3:00 PM - - - N/A% - 6.2 mi SSW 13.8 mph - N/A   Mostly Cloudy
3:15 PM 68.0 °F - 55.4 °F 64% 29.71 in 6.2 mi SSW 11.5 mph - N/A   Mostly Cloudy
3:34 PM 66.2 °F - 55.4 °F 68% 29.74 in - SSW 9.2 mph - N/A   Unknown
3:45 PM 66.2 °F - 55.4 °F 68% 29.71 in 6.2 mi SSW 8.1 mph - N/A   Mostly Cloudy
4:15 PM 64.4 °F - 55.4 °F 73% 29.71 in 6.2 mi SSW 6.9 mph - N/A   Mostly Cloudy
4:45 PM 64.4 °F - 55.4 °F 73% 29.74 in 6.2 mi SSW 6.9 mph - N/A   Overcast
5:15 PM 62.6 °F - 55.4 °F 77% 29.74 in 6.2 mi SW 5.8 mph - N/A   Overcast
5:45 PM 62.6 °F - 55.4 °F 77% 29.74 in 6.2 mi SSW 9.2 mph - N/A   Overcast
6:06 PM 60.8 °F - 55.4 °F 82% 29.77 in - WSW 11.5 mph 27.6 mph N/A   Unknown
6:07 PM 59.0 °F - 51.8 °F 77% 29.80 in 6.2 mi West 13.8 mph 35.7 mph N/A Rain Light Rain
6:12 PM 57.2 °F - 51.8 °F 82% 29.80 in - NW 18.4 mph 39.1 mph N/A   Unknown
6:13 PM 57.2 °F - 50.0 °F 77% 29.80 in 6.2 mi NNW 20.7 mph 39.1 mph N/A Rain Light Rain
6:15 PM 57.2 °F - 51.8 °F 82% 29.77 in 6.2 mi WNW 17.3 mph 35.7 mph N/A Rain Light Rain
6:34 PM 50.0 °F - 46.4 °F 87% 29.83 in 3.7 mi North 24.2 mph 41.4 mph N/A Rain Rain
6:45 PM 50.0 °F - 44.6 °F 82% 29.83 in 3.7 mi North 28.8 mph 42.6 mph N/A Rain Rain
7:00 PM 50 °F - 45 °F 78% 29.83 in 4 mi North 29.1 mph - - Rain Rain
7:15 PM 48.2 °F - 46.4 °F 93% 29.86 in 3.7 mi North 18.4 mph 31.1 mph N/A Rain Rain
7:45 PM 48.2 °F - 44.6 °F 87% 29.89 in 4.3 mi North 20.7 mph 36.8 mph N/A Rain Rain
8:15 PM 50.0 °F - 44.6 °F 82% 29.89 in 4.3 mi North 17.3 mph 32.2 mph N/A Rain Rain
8:45 PM 48.2 °F - 42.8 °F 82% 29.92 in 4.3 mi NNE 18.4 mph - N/A Rain Rain
9:09 PM 48.2 °F - 41.0 °F 76% 29.98 in 5.0 mi North 15.0 mph - N/A Rain Light Rain
9:15 PM 48.2 °F - 41.0 °F 76% 29.95 in 5.0 mi North 15.0 mph - N/A Rain Light Rain
9:45 PM 46.4 °F 41.9 °F 42.8 °F 87% 29.95 in 5.0 mi North 9.2 mph - N/A Rain Light Rain
10:45 PM 46.4 °F - 42.8 °F 87% 29.98 in 5.0 mi East 2.3 mph - N/A Rain Light Rain
11:45 PM 46.4 °F - 44.6 °F 93% 29.95 in 6.2 mi Calm Calm - N/A Rain Light Rain